Regional Weather Roundup
Issued by NWS

Home | Current Version | Previous Version | Text Only | Print | Product List | Glossary Off
Versions: 1 2 3 4 5 6 7 8 9 10 11 12 13 14 15 16 17 18 19 20 21 22 23 24 25 26 27 28 29 30 31 32 33 34 35 36 37 38 39 40 41 42 43 44 45 46 47 48 49 50

000
ASUS45 KBOU 251707
RWRCO

WEATHER ROUNDUP FOR COLORADO
NATIONAL WEATHER SERVICE DENVER/BOULDER CO
1100 AM MDT SAT MAR 25 2017

NOTE: "FAIR" INDICATES FEW OR NO CLOUDS BELOW 12000 FEET WITH NO
SIGNIFICANT WEATHER AND/OR OBSTRUCTIONS TO VISIBILITY.

COZ001>005-013-030-031-251800-
...NORTHWEST COLORADO...

CITY           SKY/WX    TMP DP  RH WIND       PRES   REMARKS
CRAIG          FAIR      55  23  28 NE12      30.01F
HAYDEN         FAIR      48  25  40 E9        30.03F
MEEKER         FAIR      55  22  27 SW6       30.01F
MOUNT WERNER   NOT AVBL
STEAMBOAT SPGS FAIR      42  28  57 CALM      30.04F
WALDEN         NOT AVBL
$$

COZ006>008-011-251800-
...WEST CENTRAL VALLEYS...

CITY           SKY/WX    TMP DP  RH WIND       PRES   REMARKS
GRAND JUNCTION FAIR      55  30  38 SE13      30.00F
MONTROSE       FAIR      55  23  28 SE10      30.05F
EAGLE          SUNNY     43  25  49 CALM      30.11F
RIFLE          FAIR      51  28  41 CALM      30.04F
DELTA          FAIR      53  28  37 CALM      30.05F
NUCLA          FAIR      50  28  43 CALM      30.10F
$$

COZ017>023-064>068-251800-
...SOUTHWEST COLORADO...

CITY           SKY/WX    TMP DP  RH WIND       PRES   REMARKS
DURANGO        FAIR      49  29  46 E9        30.11F
CORTEZ         FAIR      56  28  34 S6        30.08F
PAGOSA SPRINGS FAIR      48  28  45 S3        30.15F
TELLURIDE      FAIR      46  12  25 CALM      30.14
WOLF CREEK PAS FAIR      36  18  48 S8        30.30F
$$

COZ009-010-012-014-032>034-037-058>063-251800-
...CENTRAL COLORADO...

CITY           SKY/WX    TMP DP  RH WIND       PRES   REMARKS
ASPEN          FAIR      44  24  45 NW5       30.07F
BUENA VISTA    FAIR      46  16  29 SE5       30.10F
COPPER MTN     NOT AVBL
BERTHOUD PASS  FAIR      32  21  64 NW8       30.22F WCI  25
COTTONWOOD PAS FAIR      45  12  26 E7        30.15F
GUNNISON       FAIR      36  24  62 VRB3      30.16F
KREMMLING      FAIR      43  28  56 CALM      30.12F
LEADVILLE      FAIR      41   6  23 SW5       30.12F
MONARCH PASS   FAIR      34  -4  19 SW16      30.33F WCI  23
SALIDA         FAIR      52  20  28 CALM      30.15F
SUNLIGHT       FAIR      32  16  51 SW8G18    30.20F WCI  25
WILKERSON PASS FAIR      41   5  22 W6        30.23S
$$

COZ069>075-251800-
...SAN LUIS VALLEY/SANGRE DE CRISTO MOUNTAINS...

CITY           SKY/WX    TMP DP  RH WIND       PRES   REMARKS
ALAMOSA        FAIR      44  30  57 CALM      30.16F
LA VETA PASS   NOT AVBL
SAGUACHE       FAIR      45  25  45 S7        30.17F
$$

COZ035-036-038>040-251800-
...NORTHERN COLORADO FRONT RANGE...

CITY           SKY/WX    TMP DP  RH WIND       PRES   REMARKS
DENVER INTL AP PTSUNNY   56  27  32 S12       30.01F
DMNS CITY PARK   N/A     56  27  32 N9        30.00F
AURORA         PTSUNNY   55  26  32 S10       30.01F
FRONT RANGE AP PTSUNNY   55  32  41 S12       30.03S
ERIE MUNI ARPT FAIR      51  31  46 NE5       30.02F
BOULDER MUN AP FAIR      52  28  40 E3        30.01F
CENTENNIAL     PTSUNNY   52  30  43 S8        30.01F
BROOMFIELD     MOSUNNY   54  28  37 N6        30.02F
FORT COLLINS   FAIR      49  30  48 E5        30.03F
LONGMONT       FAIR      55  31  41 E3        30.03F
$$

COZ041-046-047-076>085-087-088-251800-
...PIKES PEAK/PALMER DIVIDE AND SOUTHERN FOOTHILLS...

CITY           SKY/WX    TMP DP  RH WIND       PRES   REMARKS
COLO. SPRINGS  PTSUNNY   47  31  53 SE5       30.07F
A. F. ACADEMY  FAIR      48  29  48 S8        30.05F
SCHRIEVER AFB  FAIR      46  30  54 S12G17    30.07F
ELLICOTT         N/A    N/A N/A N/A SW8       30.06F
FALCON         FAIR      45  31  58 S5        30.09F
FORT CARSON    FAIR      48  30  49 CALM      30.06F
LIMON          FAIR      49  36  61 S5        30.05F
MONUMENT HILL  FAIR      43  28  56 S9        30.08S
TRINIDAD       FAIR      49  32  52 SE7       30.08F
$$

COZ042>045-048>051-090-091-251800-
...NORTHEAST COLORADO...

CITY           SKY/WX    TMP DP  RH WIND       PRES   REMARKS
GREELEY ARPT   FAIR      49  33  54 VRB3      30.03F
AKRON          FAIR      52  28  39 S7        30.03F
BURLINGTON     FAIR      51  27  39 NW5       30.06F
WRAY           FAIR      52  28  40 CALM      30.06S
STERLING       FAIR      52  36  54 S8        30.03F
HOLYOKE        FAIR      54  37  54 CALM      30.05F
FORT MORGAN    FAIR      51  32  48 SE6       30.04F
$$

COZ086-089-092>099-251800-
...SOUTHEAST COLORADO...

CITY           SKY/WX    TMP DP  RH WIND       PRES   REMARKS
PUEBLO         FAIR      49  33  54 SE8       30.05F
LA JUNTA       FAIR      52  36  54 VRB6      30.07F
LAMAR          FAIR      55  30  38 W8        30.04F
SPRINGFIELD      N/A     55  28  35 N9        30.06F
$$



USA.gov is the U.S. government's official web portal to all federal, state and local government web resources and services.